FW1310 Weather Reports


Display with metric or nautical units.
time (UTC)temp
F
wind
direction
speed
MPH
gust
MPH
rain 1hr
in
rain 24hr
in
rain mn
in
humidity
%
barometer
mb
20260506033504 76 264 2.0 3.0 0.00 0.00 0.00 85 993.4
20260506033005 76 206 3.0 8.0 0.00 0.00 0.00 84 993.4
20260506032504 77 271 4.0 8.0 0.00 0.00 0.00 84 993.3
20260506032005 77 234 1.0 5.0 0.00 0.00 0.00 84 993.4
20260506031005 77 267 3.0 5.0 0.00 0.00 0.00 83 993.3
20260506030504 77 258 1.0 6.0 0.00 0.00 0.00 83 993.1
20260506030004 77 261 2.0 6.0 0.00 0.00 0.00 82 993.1
20260506025504 77 303 3.0 7.0 0.00 0.00 0.00 82 993.0
20260506025004 78 270 1.0 3.0 0.00 0.00 0.00 82 993.1
20260506024004 78 172 3.0 5.0 0.00 0.00 0.00 81 992.8
20260506023505 78 262 3.0 5.0 0.00 0.00 0.00 81 992.8
20260506023004 78 246 2.0 5.0 0.00 0.00 0.00 81 992.8
20260506022504 78 268 3.0 5.0 0.00 0.00 0.00 80 992.7
20260506022004 78 253 3.0 6.0 0.00 0.00 0.00 80 992.5
20260506021504 78 243 2.0 5.0 0.00 0.00 0.00 80 992.5
20260506020504 79 232 3.0 7.0 0.00 0.00 0.00 79 992.4
20260506015504 79 237 3.0 5.0 0.00 0.00 0.00 78 992.3
20260506015004 79 243 2.0 3.0 0.00 0.00 0.00 77 992.3
20260506014504 79 281 2.0 6.0 0.00 0.00 0.00 77 992.0
20260506014004 79 253 3.0 7.0 0.00 0.00 0.00 77 992.0
20260506013504 79 239 2.0 8.0 0.00 0.00 0.00 77 992.0
20260506013004 79 240 5.0 8.0 0.00 0.00 0.00 76 992.0
20260506012504 79 263 2.0 3.0 0.00 0.00 0.00 76 991.9
20260506011504 80 270 1.0 1.0 0.00 0.00 0.00 75 991.8
20260506011004 80 313 0.0 0.0 0.00 0.00 0.00 74 992.0
20260506005004 81 257 1.0 2.0 0.00 0.00 0.00 72 991.9
20260506004504 82 276 1.0 5.0 0.00 0.00 0.00 72 991.8
20260506004004 82 292 1.0 3.0 0.00 0.00 0.00 71 992.0
20260506003504 82 240 1.0 5.0 0.00 0.00 0.00 71 992.1
20260506003004 82 354 0.0 5.0 0.00 0.00 0.00 71 991.9
20260506002504 82 281 2.0 5.0 0.00 0.00 0.00 70 992.0
20260506002004 82 277 2.0 5.0 0.00 0.00 0.00 70 992.1
20260506001504 82 218 2.0 5.0 0.00 0.00 0.00 70 991.9
20260506001004 82 273 2.0 7.0 0.00 0.00 0.00 70 991.8
20260506000504 82 230 1.0 7.0 0.00 0.00 0.00 70 992.0
20260505235504 82 8 1.0 8.0 0.00 0.00 0.00 70 992.0
20260505235004 82 250 2.0 3.0 0.00 0.00 0.00 70 992.0
20260505234504 83 277 3.0 8.0 0.00 0.00 0.00 70 992.0
20260505234004 83 340 2.0 5.0 0.00 0.00 0.00 69 991.9
20260505232004 83 250 2.0 8.0 0.00 0.00 0.00 68 991.8
20260505231504 84 248 1.0 9.0 0.00 0.00 0.00 67 991.6
20260505231005 84 237 1.0 6.0 0.00 0.00 0.00 67 991.5
20260505230504 84 88 2.0 6.0 0.00 0.00 0.00 67 991.5
20260505230004 84 273 1.0 3.0 0.00 0.00 0.00 66 991.4
20260505225504 84 301 3.0 6.0 0.00 0.00 0.00 66 991.4
20260505225004 84 294 2.0 9.0 0.00 0.00 0.00 66 991.4
20260505224504 84 306 2.0 9.0 0.00 0.00 0.00 66 991.3
20260505224004 85 301 2.0 9.0 0.00 0.00 0.00 65 991.3
20260505223504 85 299 1.0 5.0 0.00 0.00 0.00 65 991.4
20260505223004 85 276 2.0 5.0 0.00 0.00 0.00 65 991.3
20260505222504 85 259 2.0 7.0 0.00 0.00 0.00 65 991.4
20260505221504 85 267 1.0 3.0 0.00 0.00 0.00 67 991.2
20260505221004 85 306 2.0 7.0 0.00 0.00 0.00 67 991.3
20260505220504 85 221 3.0 8.0 0.00 0.00 0.00 65 991.4
20260505220004 85 249 4.0 7.0 0.00 0.00 0.00 65 991.3
20260505215504 85 272 2.0 9.0 0.00 0.00 0.00 66 991.6
20260505214504 86 308 3.0 9.0 0.00 0.00 0.00 64 991.7
20260505213004 86 251 3.0 8.0 0.00 0.00 0.00 64 991.6
20260505212504 87 292 3.0 7.0 0.00 0.00 0.00 64 991.7
20260505212004 87 302 3.0 8.0 0.00 0.00 0.00 65 991.9
20260505211004 86 252 1.0 6.0 0.00 0.00 0.00 65 992.0
20260505210504 87 241 3.0 6.0 0.00 0.00 0.00 63 992.1
20260505205504 86 284 5.0 9.0 0.00 0.00 0.00 64 992.2
20260505205004 85 228 1.0 3.0 0.00 0.00 0.00 65 992.1
20260505204504 86 326 1.0 7.0 0.00 0.00 0.00 64 992.4
20260505204005 86 126 1.0 7.0 0.00 0.00 0.00 63 992.2
20260505203005 85 247 2.0 5.0 0.00 0.00 0.00 64 992.2
20260505202504 85 304 5.0 9.0 0.00 0.00 0.00 64 992.4
20260505202004 85 234 4.0 10.0 0.00 0.00 0.00 65 992.5
20260505201504 85 280 3.0 9.0 0.00 0.00 0.00 64 992.5
20260505201004 85 209 2.0 10.0 0.00 0.00 0.00 64 992.7
20260505200504 85 301 3.0 7.0 0.00 0.00 0.00 64 992.7
20260505195504 85 200 2.0 7.0 0.00 0.00 0.00 64 992.7
20260505195004 85 299 3.0 6.0 0.00 0.00 0.00 64 992.7
20260505194504 85 280 2.0 6.0 0.00 0.00 0.00 65 992.9
20260505194004 84 321 5.0 9.0 0.00 0.00 0.00 66 992.9
20260505193504 84 34 1.0 10.0 0.00 0.00 0.00 67 993.1
20260505193004 84 288 3.0 8.0 0.00 0.00 0.00 66 992.9
20260505192504 83 288 5.0 8.0 0.00 0.00 0.00 67 993.2
20260505192004 83 332 3.0 7.0 0.00 0.00 0.00 68 993.2
20260505191504 83 274 2.0 10.0 0.00 0.00 0.00 68 993.3
20260505191004 83 189 3.0 10.0 0.00 0.00 0.00 68 993.2
20260505190504 83 268 3.0 10.0 0.00 0.00 0.00 68 993.2
20260505190004 83 303 4.0 9.0 0.00 0.00 0.00 68 993.2
20260505185504 83 8 2.0 9.0 0.00 0.00 0.00 69 993.3
20260505185004 83 337 5.0 8.0 0.00 0.00 0.00 68 993.4
20260505184004 82 314 3.0 7.0 0.00 0.00 0.00 71 993.5
20260505183504 81 210 3.0 6.0 0.00 0.00 0.00 71 993.6
20260505182505 82 317 3.0 8.0 0.00 0.00 0.00 70 993.8
20260505182004 81 269 4.0 9.0 0.00 0.00 0.00 72 993.8
20260505181504 80 310 2.0 9.0 0.00 0.00 0.00 72 993.9
20260505181004 80 353 4.0 9.0 0.00 0.00 0.00 72 994.0
20260505180504 81 306 3.0 7.0 0.00 0.00 0.00 71 994.1
20260505180004 79 286 3.0 8.0 0.00 0.00 0.00 74 994.2
20260505175504 78 350 5.0 9.0 0.00 0.00 0.00 75 994.2
20260505175004 79 317 3.0 9.0 0.00 0.00 0.00 75 994.3
20260505174504 78 311 3.0 9.0 0.00 0.00 0.00 76 994.4
20260505174004 77 339 2.0 9.0 0.00 0.00 0.00 76 994.5
20260505173004 77 304 3.0 7.0 0.00 0.00 0.00 78 994.3
20260505172505 76 354 2.0 7.0 0.00 0.00 0.00 79 994.5
20260505172004 76 7 1.0 9.0 0.00 0.00 0.00 79 994.5
20260505171504 76 321 2.0 3.0 0.00 0.00 0.00 80 994.6
20260505171004 76 11 1.0 10.0 0.00 0.00 0.00 80 994.6
20260505170504 75 337 4.0 10.0 0.00 0.00 0.00 81 994.5
20260505170004 75 292 3.0 7.0 0.00 0.00 0.00 81 994.6
20260505165504 75 93 1.0 7.0 0.00 0.00 0.00 81 994.5
20260505165004 75 194 1.0 7.0 0.00 0.00 0.00 81 994.6
20260505164504 75 275 3.0 8.0 0.00 0.00 0.00 81 994.5
20260505164004 74 271 3.0 12.0 0.00 0.00 0.00 82 994.5
20260505163504 75 317 4.0 12.0 0.00 0.00 0.00 81 994.5
20260505163004 74 38 2.0 6.0 0.00 0.00 0.00 82 994.5
20260505162505 74 356 2.0 6.0 0.00 0.00 0.00 83 994.7
20260505162004 73 345 2.0 7.0 0.00 0.00 0.00 84 994.8
20260505160504 73 38 2.0 8.0 0.00 0.00 0.00 85 994.5
20260505153005 73 311 3.0 9.0 0.00 0.00 0.00 85 994.5
20260505152504 72 336 3.0 9.0 0.00 0.00 0.00 85 994.6
20260505152004 72 21 2.0 9.0 0.00 0.00 0.00 86 994.5
20260505151504 72 249 2.0 5.0 0.00 0.00 0.00 86 994.6
20260505151004 72 98 2.0 7.0 0.00 0.00 0.00 86 994.5
20260505150504 72 317 1.0 9.0 0.00 0.00 0.00 87 994.6
20260505140504 71 294 2.0 7.0 0.00 0.00 0.00 87 993.9
20260505125004 70 307 4.0 8.0 0.00 0.00 0.00 88 993.3
20260505124504 70 268 3.0 6.0 0.00 0.00 0.00 88 993.4
20260505124004 70 31 5.0 8.0 0.00 0.00 0.00 88 993.3
20260505123504 70 307 2.0 9.0 0.00 0.00 0.00 88 993.2
20260505123004 70 291 3.0 7.0 0.00 0.00 0.00 88 993.1
20260505122004 70 5 5.0 8.0 0.00 0.00 0.00 89 992.9
20260505121504 69 293 4.0 8.0 0.00 0.00 0.00 89 992.7
20260505121004 69 348 4.0 12.0 0.00 0.00 0.00 89 992.7
20260505120504 69 278 3.0 9.0 0.00 0.00 0.00 89 992.5
20260505120005 69 309 3.0 12.0 0.00 0.00 0.00 89 992.5
20260505115504 69 345 1.0 3.0 0.00 0.00 0.00 89 992.4
20260505115004 69 208 2.0 6.0 0.00 0.00 0.00 89 992.3
20260505114004 69 290 1.0 7.0 0.00 0.00 0.00 89 992.3
20260505112504 70 351 3.0 6.0 0.00 0.00 0.00 89 992.5
20260505112004 70 288 4.0 10.0 0.00 0.00 0.00 88 992.4
20260505111504 70 314 3.0 8.0 0.00 0.00 0.00 88 992.5
20260505111004 70 270 4.0 8.0 0.00 0.00 0.00 88 992.2
20260505110504 70 0 3.0 8.0 0.00 0.00 0.00 88 992.4
20260505102004 70 336 2.0 9.0 0.00 0.00 0.00 88 992.7
20260505101504 70 315 3.0 9.0 0.00 0.00 0.00 88 992.7
20260505100504 70 338 2.0 6.0 0.00 0.00 0.00 88 992.9
20260505100004 70 335 3.0 6.0 0.00 0.00 0.00 88 992.8
20260505095504 70 324 3.0 12.0 0.00 0.00 0.00 88 993.0
20260505095004 70 283 3.0 9.0 0.00 0.00 0.00 88 992.9
20260505094504 70 273 4.0 10.0 0.00 0.00 0.00 88 993.0
20260505094004 70 307 3.0 10.0 0.00 0.00 0.00 88 992.8
20260505093504 70 101 4.0 9.0 0.00 0.00 0.00 88 992.9
20260505092504 70 12 2.0 6.0 0.00 0.00 0.00 88 992.8
20260505091004 70 268 5.0 13.0 0.00 0.00 0.00 87 993.1
20260505090504 70 321 3.0 8.0 0.00 0.00 0.00 87 993.1
20260505085504 70 18 5.0 9.0 0.00 0.00 0.00 87 993.1
20260505084504 70 18 5.0 13.0 0.00 0.00 0.00 87 993.4
20260505084004 70 333 3.0 8.0 0.00 0.00 0.00 87 993.2
20260505083504 70 296 3.0 8.0 0.00 0.00 0.00 87 993.2
20260505083004 70 324 5.0 8.0 0.00 0.00 0.00 86 993.2
20260505082504 70 297 6.0 12.0 0.00 0.00 0.00 86 993.3
20260505082004 70 225 3.0 8.0 0.00 0.00 0.00 86 993.3
20260505081504 70 294 3.0 10.0 0.00 0.00 0.00 86 993.3
20260505081004 70 261 4.0 9.0 0.00 0.00 0.00 86 993.3
20260505080504 70 324 3.0 10.0 0.00 0.00 0.00 86 993.4
20260505080004 70 287 5.0 14.0 0.00 0.00 0.00 86 993.4
20260505075504 70 322 3.0 14.0 0.00 0.00 0.00 86 993.5
20260505074504 70 322 3.0 10.0 0.00 0.00 0.00 86 993.5
20260505073504 70 344 3.0 9.0 0.00 0.00 0.00 86 993.8
20260505072504 70 312 4.0 9.0 0.00 0.00 0.00 86 993.9
20260505072004 70 315 5.0 10.0 0.00 0.00 0.00 86 994.1
20260505071504 70 344 5.0 9.0 0.00 0.00 0.00 86 994.1
20260505071004 70 281 2.0 12.0 0.00 0.00 0.00 86 994.3
20260505070504 70 331 3.0 12.0 0.00 0.00 0.00 86 994.2
20260505070004 70 63 3.0 12.0 0.00 0.00 0.00 86 994.3
20260505065504 70 357 3.0 7.0 0.00 0.00 0.00 86 994.4
20260505065004 70 220 6.0 14.0 0.00 0.00 0.00 86 994.5
20260505063004 70 296 3.0 8.0 0.00 0.00 0.00 85 994.4
20260505062504 71 264 5.0 8.0 0.00 0.00 0.00 85 994.6
20260505062005 71 286 3.0 8.0 0.00 0.00 0.00 85 994.7
20260505061505 71 252 5.0 10.0 0.00 0.00 0.00 85 994.6
20260505061004 71 267 2.0 5.0 0.00 0.00 0.00 85 994.7
20260505060504 71 318 5.0 10.0 0.00 0.00 0.00 85 994.7
20260505060005 71 280 2.0 9.0 0.00 0.00 0.00 85 994.7
20260505055505 71 264 5.0 13.0 0.00 0.00 0.00 85 994.6
20260505055005 71 263 4.0 9.0 0.00 0.00 0.00 84 994.5
20260505054504 71 315 5.0 8.0 0.00 0.00 0.00 84 994.6
20260505054004 71 298 7.0 13.0 0.00 0.00 0.00 84 994.6
20260505053504 71 273 4.0 9.0 0.00 0.00 0.00 84 994.7
20260505053005 71 341 5.0 13.0 0.00 0.00 0.00 84 994.6
20260505051504 71 268 5.0 13.0 0.00 0.00 0.00 84 994.6
20260505050504 71 311 5.0 9.0 0.00 0.00 0.00 84 994.4
20260505041504 72 320 3.0 6.0 0.00 0.00 0.00 82 994.6
20260505040504 72 284 2.0 6.0 0.00 0.00 0.00 82 994.5
20260505040005 72 324 2.0 6.0 0.00 0.00 0.00 81 994.5
20260505035004 72 285 2.0 6.0 0.00 0.00 0.00 81 994.5